Roanoke Regional Airport Airport (ROA)

 

Airport Diagram
Current Weather/Forecast (VFR Conditions)
METAR KROA 241954Z 27008KT 10SM BKN070 28/12 A2990 RMK AO2 SLP112 T02780117
TAF KROA 241725Z 2418/2518 30012G22KT P6SM SCT045 BKN080 FM242300 27005KT P6SM SCT150 FM250300 VRB03KT P6SM BKN200 FM251700 22006KT P6SM BKN070

All Charts
General
Chart Name Download
AIRPORT DIAGRAM
TAKEOFF MINIMUMS
ALTERNATE MINIMUMS
HOT SPOT

Departures
Chart Name Download
BUFIY TWO (RNAV)
DIXXY SEVEN
HOKEE THREE
MONAT TWO (RNAV)
SCUTA TWO (RNAV)

Approaches
Chart Name Download
ILS OR LOC RWY 34
RNAV (GPS) RWY 06
RNAV (GPS) RWY 24
RNAV (GPS) RWY 34
LDA Y RWY 06
LDA Z RWY 06
VOR/DME-A


Inbound Traffic (Arrivals)

No inbound traffic.


Outbound Traffic (Departures)

No outbound traffic.